FW3988 Weather Reports


time (UTC)temp
C
wind
direction
speed
KPH
gust
KPH
rain 1hr
cm
rain 24hr
cm
rain mn
cm
humidity
%
barometer
mb
20260508131553 23 282 1.6 4.8 0.00 0.00 0.00 70 1009.8
20260508130131 23 280 0.0 6.4 0.00 0.00 0.00 70 1009.8
20260508124520 23 325 0.0 3.2 0.00 0.00 0.00 68 1009.5
20260508123007 23 325 0.0 6.4 0.00 0.00 0.00 69 1009.5
20260508121558 23 316 0.0 4.8 0.00 0.00 0.00 68 1009.3
20260508120009 23 305 3.2 6.4 0.00 0.00 0.00 66 1009.2
20260508114559 24 298 0.0 8.0 0.00 0.00 0.00 65 1009.2
20260508113053 24 315 3.2 8.0 0.00 0.00 0.00 64 1009.0
20260508111552 24 277 3.2 12.9 0.00 0.00 0.00 64 1009.0
20260508110130 24 292 1.6 4.8 0.00 0.00 0.00 65 1009.2
20260508104540 25 309 0.0 6.4 0.00 0.00 0.00 62 1009.1
20260508103018 25 311 1.6 4.8 0.00 0.00 0.00 57 1008.9
20260508101557 25 334 0.0 3.2 0.00 0.00 0.00 57 1008.9
20260508100138 25 355 0.0 4.8 0.00 0.00 0.00 57 1008.9
20260508094533 25 319 1.6 6.4 0.00 0.00 0.00 57 1008.9
20260508093018 25 303 0.0 4.8 0.00 0.00 0.00 60 1008.9
20260508091604 25 302 1.6 4.8 0.00 0.00 0.00 63 1009.0
20260508091505 25 341 0.0 3.2 0.00 0.00 0.00 64 1009.0
20260508090009 25 295 1.6 6.4 0.00 0.00 0.00 56 1009.1
20260508084551 26 293 3.2 8.0 0.00 0.00 0.00 56 1009.2
20260508083038 26 294 1.6 6.4 0.00 0.00 0.00 59 1009.2
20260508081535 26 283 0.0 6.4 0.00 0.00 0.00 60 1009.4
20260508080134 26 282 4.8 12.9 0.00 0.00 0.00 61 1009.5
20260508074600 26 271 0.0 4.8 0.00 0.00 0.00 57 1009.8
20260508073048 26 292 3.2 6.4 0.00 0.00 0.00 59 1009.7
20260508071544 26 302 1.6 8.0 0.00 0.00 0.00 63 1009.8
20260508070010 26 278 1.6 8.0 0.00 0.00 0.00 59 1010.1
20260508064602 26 312 1.6 6.4 0.00 0.00 0.00 58 1010.2
20260508063057 26 296 1.6 4.8 0.00 0.00 0.00 55 1010.4
20260508061538 27 323 3.2 12.9 0.00 0.00 0.00 49 1010.2
20260508060130 27 290 4.8 12.9 0.00 0.00 0.00 48 1010.4
20260508054509 27 284 9.7 20.9 0.00 0.00 0.00 47 1010.5
20260508053104 27 267 8.0 20.9 0.00 0.00 0.00 47 1010.8
20260508053002 27 265 8.0 19.3 0.00 0.00 0.00 48 1010.8
20260508051547 27 294 9.7 19.3 0.00 0.00 0.00 48 1010.5
20260508050018 27 303 6.4 19.3 0.00 0.00 0.00 48 1010.5
20260508044510 27 294 6.4 19.3 0.00 0.00 0.00 52 1010.5
20260508043112 27 279 9.7 20.9 0.00 0.00 0.00 53 1010.6
20260508041555 27 287 9.7 19.3 0.00 0.00 0.00 52 1010.5
20260508040138 27 277 9.7 16.1 0.00 0.00 0.00 52 1010.4
20260508034502 27 298 8.0 14.5 0.00 0.00 0.00 53 1010.0
20260508033048 27 278 4.8 17.7 0.00 0.00 0.00 50 1010.0
20260508031539 27 269 9.7 22.5 0.00 0.00 0.00 52 1009.8
20260508030001 27 279 12.9 22.5 0.00 0.00 0.00 50 1009.8
20260508024601 27 277 12.9 22.5 0.00 0.00 0.00 56 1009.5
20260508023050 27 306 11.3 19.3 0.00 0.00 0.00 56 1009.3
20260508021547 27 313 4.8 25.7 0.00 0.00 0.00 51 1008.9
20260508020148 27 253 14.5 30.6 0.00 0.00 0.00 51 1008.9
20260508014542 27 281 16.1 38.6 0.00 0.00 0.00 51 1009.0
20260508013040 27 293 16.1 29.0 0.00 0.00 0.00 56 1009.0
20260508011543 27 314 11.3 24.1 0.00 0.00 0.00 61 1008.8
20260508010147 27 298 14.5 27.4 0.00 0.00 0.00 61 1008.7
20260508004530 27 303 12.9 32.2 0.00 0.00 0.00 58 1008.5
20260508003006 27 304 19.3 29.0 0.00 0.00 0.00 56 1008.5
20260508001600 28 291 16.1 37.0 0.00 0.00 0.00 53 1008.7
20260508000147 28 266 16.1 33.8 0.00 0.00 0.00 53 1008.7
20260507234525 28 313 16.1 40.2 0.00 0.00 0.00 51 1008.4
20260507233002 28 304 20.9 41.8 0.00 0.00 0.00 51 1008.5
20260507231552 29 263 14.5 32.2 0.00 0.00 0.00 49 1008.5
20260507230008 30 271 16.1 27.4 0.00 0.00 0.00 47 1008.5
20260507224555 29 313 17.7 29.0 0.00 0.00 0.00 51 1008.5
20260507223028 28 296 19.3 37.0 0.00 0.00 0.00 57 1008.8
20260507221501 29 257 14.5 30.6 0.00 0.00 0.00 56 1008.8
20260507220139 30 266 16.1 27.4 0.00 0.00 0.00 51 1008.9
20260507214514 30 286 14.5 30.6 0.00 0.00 0.00 47 1009.1
20260507213111 30 276 14.5 27.4 0.00 0.00 0.00 49 1009.1
20260507211554 30 273 14.5 27.4 0.00 0.00 0.00 49 1009.2
20260507210009 31 292 14.5 24.1 0.00 0.00 0.00 44 1009.3
20260507204604 31 267 12.9 24.1 0.00 0.00 0.00 44 1009.7
20260507203106 31 271 11.3 22.5 0.00 0.00 0.00 44 1009.9
20260507201541 31 262 8.0 17.7 0.00 0.00 0.00 41 1009.9
20260507200139 31 256 11.3 22.5 0.00 0.00 0.00 44 1010.4
20260507194526 30 236 11.3 20.9 0.00 0.00 0.00 50 1010.6
20260507193015 30 288 12.9 22.5 0.00 0.00 0.00 52 1010.9
20260507191604 30 253 9.7 16.1 0.00 0.00 0.00 56 1010.9
20260507190016 30 255 8.0 17.7 0.00 0.00 0.00 53 1011.2
20260507184612 30 281 8.0 17.7 0.00 0.00 0.00 52 1011.3
20260507183104 31 236 9.7 16.1 0.00 0.00 0.00 57 1011.4
20260507181537 31 228 4.8 11.3 0.00 0.00 0.00 53 1011.4
20260507180131 30 279 6.4 14.5 0.00 0.00 0.00 55 1011.6
20260507174522 30 252 6.4 14.5 0.00 0.00 0.00 53 1011.7
20260507173009 30 246 6.4 12.9 0.00 0.00 0.00 57 1011.8
20260507171610 29 288 8.0 14.5 0.00 0.00 0.00 58 1011.8
20260507170018 29 254 8.0 16.1 0.00 0.00 0.00 63 1011.8
20260507164611 29 240 4.8 12.9 0.00 0.00 0.00 66 1011.7
20260507163047 28 283 1.6 4.8 0.00 0.00 0.00 64 1011.9
20260507161541 28 229 1.6 11.3 0.00 0.00 0.00 62 1011.9
20260507160133 27 286 4.8 11.3 0.00 0.00 0.00 63 1011.9
20260507154547 27 218 1.6 11.3 0.00 0.00 0.00 68 1011.8
20260507153049 27 223 6.4 12.9 0.00 0.00 0.00 66 1012.0
20260507151541 26 230 6.4 12.9 0.00 0.00 0.00 67 1011.8
20260507150011 26 251 4.8 11.3 0.00 0.00 0.00 65 1011.7
20260507144511 26 347 0.0 3.2 0.00 0.00 0.00 64 1011.4
20260507143106 25 360 0.0 4.8 0.00 0.00 0.00 65 1011.2
20260507141558 25 37 1.6 6.4 0.00 0.00 0.00 66 1011.0
20260507140023 24 29 3.2 6.4 0.00 0.00 0.00 68 1010.9
20260507134526 23 11 1.6 6.4 0.00 0.00 0.00 71 1011.0
20260507133100 23 9 1.6 6.4 0.00 0.00 0.00 73 1010.9